Regional Weather Roundup
Issued by NWS Goodland, KS

Home | Current Version | Previous Version | Graphics & Text | Print | Product List | Glossary On
Versions: 1 2 3 4 5 6 7 8 9 10 11 12 13 14 15 16 17 18 19 20 21 22 23 24 25 26 27 28 29 30 31 32 33 34 35 36 37 38 39 40 41 42 43 44 45 46 47 48 49 50
077
ASUS43 KGLD 291159
RWRGLD

GOODLAND FORECAST AREA HOURLY WEATHER ROUNDUP
NATIONAL WEATHER SERVICE GOODLAND KS
600 AM MDT THU SEP 29 2016

...OFFICIAL OBSERVATIONS...

CITY           SKY/WX    TMP DP  RH WIND       PRES   REMARKS
GOODLAND KS    CLEAR     42  37  82 S7        30.39F
HILL CITY KS   CLEAR     39  37  92 CALM      30.43R
IMPERIAL NEB   CLOUDY    40  36  86 SE7       30.40S
MCCOOK NEB     CLOUDY    39  37  92 NE3       30.42R
AKRON CO       CLEAR     53  39  59 S15       30.37S
BURLINGTON CO  CLEAR     47  38  71 S12       30.40S
LIMON CO       CLOUDY    39  37  92 S3        30.41F
$$

...UNOFFICIAL OBSERVATIONS...

CITY           SKY/WX    TMP DP  RH WIND       PRES   REMARKS
COLBY KS       CLEAR     41  39  93 CALM      30.42S
LENORA KS        N/A     45  32  60 MISG        N/A
NORTON KS      CLEAR     39  32  75 CALM      30.42R
SHARON SPRINGS   N/A     45  39  80 S5          N/A
KIT CARSON CO    N/A     47  38  71 CALM        N/A
$$




USA.gov is the U.S. government's official web portal to all federal, state and local government web resources and services.